When you browse on this site, cookies collect data to enhance your experience and personalize the content and advertising you see.
Visit our Privacy Policy to learn more. By continuing to use the site, you agree to this use of cookies and data.
  • en France
  • Liste des pays
  • À 7 jours
  • Température de l'eau
  • Carte satellitaire
  • Carte météo
  • Widgets météo
  • user-avatar
    Se connecter

    Météo par heure à Dosso

    Ce jour, 18 Novembre, Dimanche

    Heure Température Précipitation Vent Pression Humidité
    00:00 +27°C° 0 mm 3 m/s 738 mmHg 18%
    01:00 +27°C° 0 mm 3 m/s 738 mmHg 19%
    02:00 +26°C° 0 mm 2 m/s 738 mmHg 20%
    03:00 +25°C° 0 mm 2 m/s 738 mmHg 22%
    04:00 +25°C° 0 mm 2 m/s 738 mmHg 23%
    05:00 +24°C° 0 mm 2 m/s 738 mmHg 24%
    06:00 +24°C° 0 mm 2 m/s 738 mmHg 26%
    07:00 +27°C° 0 mm 2 m/s 739 mmHg 23%
    08:00 +30°C° 0 mm 3 m/s 739 mmHg 20%
    09:00 +34°C° 0 mm 3 m/s 740 mmHg 17%
    10:00 +35°C° 0 mm 2 m/s 739 mmHg 15%
    11:00 +37°C° 0 mm 2 m/s 739 mmHg 13%
    12:00 +39°C° 0 mm 1 m/s 738 mmHg 12%
    13:00 +39°C° 0 mm 1 m/s 738 mmHg 11%
    14:00 +39°C° 0 mm 1 m/s 737 mmHg 10%
    15:00 +40°C° 0 mm 1 m/s 736 mmHg 10%
    16:00 +36°C° 0 mm 1 m/s 736 mmHg 12%
    17:00 +33°C° 0 mm 1 m/s 736 mmHg 13%
    18:00 +30°C° 0 mm 1 m/s 736 mmHg 15%
    19:00 +30°C° 0 mm 2 m/s 737 mmHg 15%
    20:00 +30°C° 0 mm 2 m/s 738 mmHg 15%
    21:00 +30°C° 0 mm 2 m/s 738 mmHg 15%
    22:00 +30°C° 0 mm 3 m/s 738 mmHg 15%
    23:00 +29°C° 0 mm 3 m/s 738 mmHg 15%

    Demain, 19 Novembre, Lundi

    Heure Température Précipitation Vent Pression Humidité
    00:00 +29°C° 0 mm 3 m/s 738 mmHg 15%
    01:00 +28°C° 0 mm 3 m/s 738 mmHg 16%
    02:00 +28°C° 0 mm 3 m/s 737 mmHg 16%
    03:00 +27°C° 0 mm 3 m/s 737 mmHg 17%
    04:00 +27°C° 0 mm 3 m/s 737 mmHg 18%
    05:00 +26°C° 0 mm 3 m/s 737 mmHg 19%
    06:00 +26°C° 0 mm 3 m/s 738 mmHg 19%
    07:00 +29°C° 0 mm 3 m/s 738 mmHg 17%
    08:00 +33°C° 0 mm 4 m/s 739 mmHg 15%
    09:00 +36°C° 0 mm 4 m/s 739 mmHg 13%
    10:00 +37°C° 0 mm 4 m/s 739 mmHg 12%
    11:00 +39°C° 0 mm 3 m/s 738 mmHg 11%
    12:00 +42°C° 0 mm 3 m/s 738 mmHg 10%
    13:00 +41°C° 0 mm 2 m/s 737 mmHg 10%
    14:00 +41°C° 0 mm 1 m/s 736 mmHg 10%
    15:00 +38°C° 0 mm 0 m/s 736 mmHg 10%
    16:00 +37°C° 0 mm 1 m/s 736 mmHg 12%
    17:00 +35°C° 0 mm 1 m/s 736 mmHg 13%
    18:00 +32°C° 0 mm 2 m/s 736 mmHg 15%
    19:00 +32°C° 0 mm 2 m/s 736 mmHg 15%
    20:00 +32°C° 0 mm 2 m/s 737 mmHg 15%
    21:00 +33°C° 0 mm 3 m/s 738 mmHg 15%
    22:00 +31°C° 0 mm 3 m/s 738 mmHg 15%
    23:00 +30°C° 0 mm 3 m/s 738 mmHg 15%

    Après-demain, 20 Novembre, Mardi

    Heure Température Précipitation Vent Pression Humidité
    00:00 +30°C° 0 mm 3 m/s 738 mmHg 15%
    01:00 +29°C° 0 mm 3 m/s 737 mmHg 15%
    02:00 +29°C° 0 mm 3 m/s 737 mmHg 16%
    03:00 +28°C° 0 mm 3 m/s 737 mmHg 16%
    04:00 +28°C° 0 mm 3 m/s 737 mmHg 17%
    05:00 +27°C° 0 mm 3 m/s 737 mmHg 17%
    06:00 +27°C° 0 mm 3 m/s 738 mmHg 18%
    07:00 +30°C° 0 mm 4 m/s 738 mmHg 16%
    08:00 +34°C° 0 mm 4 m/s 739 mmHg 14%
    09:00 +37°C° 0 mm 5 m/s 740 mmHg 12%
    10:00 +39°C° 0 mm 5 m/s 739 mmHg 11%
    11:00 +41°C° 0 mm 4 m/s 739 mmHg 10%
    12:00 +42°C° 0 mm 4 m/s 738 mmHg 9%
    13:00 +43°C° 0 mm 3 m/s 737 mmHg 9%
    14:00 +43°C° 0 mm 3 m/s 737 mmHg 9%
    15:00 +42°C° 0 mm 2 m/s 736 mmHg 9%
    16:00 +39°C° 0 mm 2 m/s 736 mmHg 10%
    17:00 +37°C° 0 mm 2 m/s 736 mmHg 12%
    18:00 +34°C° 0 mm 2 m/s 737 mmHg 13%
    19:00 +32°C° 0 mm 2 m/s 737 mmHg 13%
    20:00 +33°C° 0 mm 3 m/s 738 mmHg 13%
    21:00 +33°C° 0 mm 3 m/s 739 mmHg 13%
    22:00 +31°C° 0 mm 3 m/s 738 mmHg 13%
    23:00 +30°C° 0 mm 3 m/s 738 mmHg 14%

    21 Novembre, Mercredi

    Heure Température Précipitation Vent Pression Humidité
    00:00 +29°C° 0 mm 3 m/s 738 mmHg 14%
    01:00 +29°C° 0 mm 3 m/s 738 mmHg 14%
    02:00 +28°C° 0 mm 3 m/s 737 mmHg 14%
    03:00 +28°C° 0 mm 3 m/s 737 mmHg 15%
    04:00 +27°C° 0 mm 3 m/s 737 mmHg 15%
    05:00 +27°C° 0 mm 3 m/s 738 mmHg 15%
    06:00 +26°C° 0 mm 3 m/s 738 mmHg 15%
    07:00 +29°C° 0 mm 4 m/s 739 mmHg 13%
    08:00 +33°C° 0 mm 5 m/s 739 mmHg 10%
    09:00 +36°C° 0 mm 5 m/s 740 mmHg 8%
    10:00 +39°C° 0 mm 5 m/s 739 mmHg 7%
    11:00 +41°C° 0 mm 5 m/s 739 mmHg 6%
    12:00 +42°C° 0 mm 5 m/s 738 mmHg 6%
    13:00 +43°C° 0 mm 5 m/s 737 mmHg 6%
    14:00 +43°C° 0 mm 4 m/s 737 mmHg 6%
    15:00 +43°C° 0 mm 4 m/s 736 mmHg 6%
    16:00 +41°C° 0 mm 4 m/s 736 mmHg 6%
    17:00 +37°C° 0 mm 4 m/s 737 mmHg 7%
    18:00 +35°C° 0 mm 3 m/s 737 mmHg 8%
    19:00 +34°C° 0 mm 4 m/s 737 mmHg 8%
    20:00 +33°C° 0 mm 4 m/s 738 mmHg 9%
    21:00 +32°C° 0 mm 4 m/s 739 mmHg 9%
    22:00 +30°C° 0 mm 4 m/s 738 mmHg 9%
    23:00 +30°C° 0 mm 4 m/s 738 mmHg 10%

    22 Novembre, Jeudi

    Heure Température Précipitation Vent Pression Humidité
    00:00 +29°C° 0 mm 4 m/s 738 mmHg 10%
    01:00 +28°C° 0 mm 4 m/s 738 mmHg 10%
    02:00 +28°C° 0 mm 4 m/s 737 mmHg 11%
    03:00 +27°C° 0 mm 4 m/s 737 mmHg 11%
    04:00 +27°C° 0 mm 4 m/s 738 mmHg 11%
    05:00 +26°C° 0 mm 4 m/s 738 mmHg 11%
    06:00 +26°C° 0 mm 4 m/s 738 mmHg 12%
    07:00 +29°C° 0 mm 5 m/s 739 mmHg 10%
    08:00 +33°C° 0 mm 6 m/s 739 mmHg 9%
    09:00 +35°C° 0 mm 8 m/s 740 mmHg 7%
    10:00 +38°C° 0 mm 7 m/s 739 mmHg 6%
    11:00 +40°C° 0 mm 7 m/s 739 mmHg 6%
    12:00 +43°C° 0 mm 7 m/s 738 mmHg 5%
    13:00 +42°C° 0 mm 6 m/s 737 mmHg 5%
    14:00 +42°C° 0 mm 6 m/s 737 mmHg 5%
    15:00 +42°C° 0 mm 5 m/s 736 mmHg 5%
    16:00 +38°C° 0 mm 4 m/s 736 mmHg 6%
    17:00 +36°C° 0 mm 3 m/s 737 mmHg 7%
    18:00 +33°C° 0 mm 3 m/s 737 mmHg 8%
    19:00 +31°C° 0 mm 3 m/s 737 mmHg 8%
    20:00 +31°C° 0 mm 3 m/s 738 mmHg 9%
    21:00 +30°C° 0 mm 3 m/s 738 mmHg 9%
    22:00 +29°C° 0 mm 3 m/s 738 mmHg 10%
    23:00 +29°C° 0 mm 3 m/s 738 mmHg 10%

    23 Novembre, Vendredi

    Heure Température Précipitation Vent Pression Humidité
    00:00 +28°C° 0 mm 4 m/s 738 mmHg 11%
    01:00 +27°C° 0 mm 4 m/s 738 mmHg 11%
    02:00 +27°C° 0 mm 4 m/s 738 mmHg 12%
    03:00 +26°C° 0 mm 4 m/s 737 mmHg 12%
    04:00 +26°C° 0 mm 4 m/s 738 mmHg 13%
    05:00 +25°C° 0 mm 4 m/s 738 mmHg 13%
    06:00 +25°C° 0 mm 4 m/s 739 mmHg 14%
    07:00 +28°C° 0 mm 5 m/s 739 mmHg 12%
    08:00 +32°C° 0 mm 6 m/s 740 mmHg 10%
    09:00 +35°C° 0 mm 6 m/s 740 mmHg 8%
    10:00 +38°C° 0 mm 6 m/s 740 mmHg 7%
    11:00 +40°C° 0 mm 7 m/s 739 mmHg 6%
    12:00 +43°C° 0 mm 7 m/s 738 mmHg 4%
    13:00 +42°C° 0 mm 6 m/s 737 mmHg 4%
    14:00 +41°C° 0 mm 6 m/s 737 mmHg 4%
    15:00 +41°C° 0 mm 6 m/s 736 mmHg 3%
    16:00 +39°C° 0 mm 5 m/s 736 mmHg 4%
    17:00 +35°C° 0 mm 4 m/s 737 mmHg 5%
    18:00 +33°C° 0 mm 3 m/s 737 mmHg 5%
    19:00 +31°C° 0 mm 3 m/s 737 mmHg 6%
    20:00 +30°C° 0 mm 3 m/s 738 mmHg 6%
    21:00 +29°C° 0 mm 3 m/s 738 mmHg 7%
    22:00 +28°C° 0 mm 3 m/s 738 mmHg 7%
    23:00 +28°C° 0 mm 3 m/s 738 mmHg 7%
    Voir plus